Location: Biberach+an+der+Riss
(48.0937°N, 9.7888°E)
Time: 15:56:15
(UTC+01:00)

ISS - Pass Details

Date: 15 November 2017
Orbit: 402 x 407 km, 51.6° (Epoch: 22 November)

Event Time Altitude Azimuth Distance (km) Brightness Sun altitude
Exits shadow 04:55:20 28° 108° (ESE) 786 -1.8 -25.3°
Drops below altitude 10° 04:57:02 10° 110° (ESE) 1,453 -0.1 -25.0°
Sets 04:59:06 0° 112° (ESE) 2,310 1.1 -24.7°
